AirNav   Air Wisconsin pilot careers
 
 555 users online  

KCHN Wauchula Municipal Airport
Wauchula, Florida, USA

GOING TO WAUCHULA?


FAA INFORMATION EFFECTIVE 09 NOVEMBER 2017

Location

FAA Identifier: CHN
Lat/Long: 27-30-53.7000N / 081-52-49.7000W
27-30.895000N / 081-52.828333W
27.5149167 / -81.8804722
(estimated)
Elevation: 107.8 ft. / 32.9 m (surveyed)
Variation: 04W (2000)
From city: 5 miles SW of WAUCHULA, FL
Time zone: UTC -5 (UTC -4 during Daylight Saving Time)
Zip code: 33873

Airport Operations

Airport use: Open to the public
Activation date: 11/1983
Control tower: no
ARTCC: MIAMI CENTER
FSS: SAINT PETERSBURG FLIGHT SERVICE STATION
NOTAMs facility: PIE (NOTAM-D service available)
Attendance: 1600-2000
Wind indicator: lighted
Segmented circle: yes
Lights: SS-SR
Beacon: white-green (lighted land airport)
Operates sunset to sunrise.

Airport Communications

CTAF: 122.9
WX AWOS-3 at AVO (19 nm E): 118.725 (863-453-4223)
  • APCH/DEP SERVICE PROVIDED BY MIAMI ARTCC ON FREQS 134.55/257.7 (AVON PARK RCAG).

Nearby radio navigation aids

VOR radial/distance  VOR name  Freq  Var
LALr165/29.1LAKELAND VORTAC116.0001E
PGDr015/(36.4)PUNTA GORDA VOR110.2006W
SRQr085/36.9SARASOTA VOR/DME117.0005W

Airport Services

Fuel available: 100LL
FUEL 24 HR CREDIT CARD SVC AVBL.
Parking: tiedowns
Airframe service: MINOR
Powerplant service: MINOR
Bottled oxygen: NONE
Bulk oxygen: NONE

Runway Information

Runway 18/36

Dimensions: 4005 x 75 ft. / 1221 x 23 m
Surface: asphalt, in good condition
Weight bearing capacity: 
PCN 7 /F/B/Y/T
Single wheel: 24.0
Double wheel: 39.0
Runway edge lights: medium intensity
RUNWAY 18  RUNWAY 36
Latitude: 27-31.224823N27-30.563918N
Longitude: 081-52.828178W081-52.827343W
Elevation: 99.3 ft.103.3 ft.
Traffic pattern: leftleft
Runway heading: 184 magnetic, 180 true004 magnetic, 360 true
Markings: nonprecision, in good conditionnonprecision, in good condition
Visual slope indicator: 4-light PAPI on left (3.00 degrees glide path)4-light PAPI on left (3.00 degrees glide path)
Runway end identifier lights: nono
Touchdown point: yes, no lightsyes, no lights
Obstructions: 34 ft. trees, 600 ft. from runway, 55 ft. right of centerline, 12:1 slope to clear16 ft. tree, 550 ft. from runway, 100 ft. left of centerline, 21:1 slope to clear

Airport Ownership and Management from official FAA records

Ownership: Publicly-owned
Owner: CITY OF WAUCHULA
126 S 7TH AVE.
WAUCHULA, FL 33873
Phone 863-773-3131
CONTACT PERSON: JAMES BRADDOCK
Manager: ANDY MADDOX, PUBLIC WORKS DIRECTOR
1202 MAURICE SONNY CLAVEL RD.
WAUCHULA, FL 33873
Phone (863) 773-3115
AIRPORT PHYSICAL ADDRESS: 1202 MAURICE SONNY CLAVEL ROAD.

Airport Operational Statistics

Aircraft based on the field: 42
Single engine airplanes: 30
Multi engine airplanes: 8
Helicopters: 3
Ultralights: 1
    
Aircraft operations: avg 22/day *
59% transient general aviation
41% local general aviation
* for 12-month period ending 17 August 2016

Additional Remarks

BLDG 175 FT EAST AND PLINE 250 FT EAST OF RY 18/36 SOUTHERN 1/4 RY IN 7:1 TRANSITION SURFACE.

Instrument Procedures

NOTE: All procedures below are presented as PDF files. If you need a reader for these files, you should download the free Adobe Reader.

NOT FOR NAVIGATION. Please procure official charts for flight.
FAA instrument procedures published for use between 9 November 2017 at 0901Z and 7 December 2017 at 0900Z.

 
IAPs - Instrument Approach Procedures
RNAV (GPS) RWY 18   download (205KB)
RNAV (GPS) RWY 36   download (193KB)
NOTE: Special Take-Off Minimums/Departure Procedures apply   download (162KB)

Other nearby airports with instrument procedures:

KAVO - Avon Park Executive Airport (19 nm E)
X06 - Arcadia Municipal Airport (19 nm S)
KBOW - Bartow Municipal Airport (26 nm N)
X07 - Lake Wales Municipal Airport (27 nm NE)
KSEF - Sebring Regional Airport (29 nm E)
 
Loc | Ops | Rwys | IFR | FBO | Links
Com | Nav | Svcs | Stats | Notes


 
Area around KCHN (Wauchula Municipal Airport)
 
Road maps at: MapQuest Bing Google
 
Aerial photo
WARNING: Photo may not be current or correct
Aerial photo of KCHN (Wauchula Municipal Airport)
Photo by Joshua C. Smith
Photo taken 16-Feb-2015
looking east.

Do you have a better or more recent aerial photo of Wauchula Municipal Airport that you would like to share? If so, please send us your photo.

 
Sectional chart

 
Airport diagram
CAUTION: Diagram may not be current
Diagram of KCHN (Wauchula Municipal Airport)
 
Airport distance calculator
Flying to Wauchula Municipal Airport? Find the distance to fly.

From to KCHN

Sunrise and sunset
Times for 20-Nov-2017
 Local
(UTC-5)
 Zulu
(UTC)
Morning civil twilight06:2811:28
Sunrise06:5311:53
Sunset17:3322:33
Evening civil twilight17:5822:58

Current date and time
Zulu (UTC)  20-Nov-2017 05:59:48
Local (UTC-5)  20-Nov-2017 00:59:48
 
METAR
KBOW 
26nm N 
200535Z AUTO 36008G13KT 10SM FEW028 15/08 A3007 RMK AO2
KLAL 
28nm N 
200555Z AUTO 02008KT 10SM CLR 12/07 A3007 RMK AO2
KSEF 
29nm E 
200535Z AUTO 02008KT 10SM SCT025 BKN030 18/14 A3004 RMK AO2 T01840140
KPCM 
33nm NW 
200535Z AUTO 01006KT 10SM CLR 14/08 A3009 RMK AO2
KGIF 
34nm N 
200553Z AUTO 01007KT 10SM CLR 13/08 A3008 RMK AO2 SLP184 T01330078 10200 20133 51016
KPGD 
36nm S 
200553Z AUTO 01009KT 10SM CLR 17/14 A3004 RMK AO2 SLP174 T01670144 10228 20167 51010
KSRQ 
37nm W 
200553Z AUTO 02010KT 10SM CLR 16/08 A3004 RMK AO2 SLP172 T01560083 10189 20156 51012
KTPF 
39nm NW 
200535Z AUTO 02008G14KT 10SM 13/08 A3008 RMK AO2
KVDF 
39nm NW 
200555Z AUTO 02003KT 10SM CLR 11/08 A3009 RMK AO2
KMCF 
39nm NW 
200456Z 05008KT 10SM CLR 14/10 A3007 RMK AO2A SLP186 T01380096 $
TAF
KLAL 
28nm N 
191729Z 1918/2018 23010G18KT P6SM SCT025 SCT080 TEMPO 1919/1923 SHRA BKN025 OVC060 FM192300 34010KT P6SM SCT025 BKN060 FM200300 35007KT P6SM FEW045 SCT100 FM201200 02007KT P6SM FEW100 FEW250 FM201600 06009KT P6SM FEW250
NOTAMs
Click for the latest NOTAMs
NOTAMs are issued by the DoD/FAA and will open in a separate window not controlled by AirNav.

 

 
 

FBO, Fuel Providers, and Aircraft Ground Support

  
 Business Name 
 
 Contact 
 
 Services / Description 
 
Fuel Prices
 
Comments
  
Wauchula Municipal Airport Authority 122.90
863-773-3115
863-832-0896
[web site]
[email]
Airport management, Aviation fuel, Aircraft parking (ramp or tiedown), Hangar leasing / sales, Pilots lounge / snooze room, Public telephone, Computerized weather, ...
More info and photos of Wauchula Municipal Airport Authority
Phillips 66
100LL
SS $4.20 
GUARANTEED
 
   6 read write
SS=Self service
Update Fuel Prices
 

Would you like to see your business listed on this page?

 If your business provides an interesting product or service to pilots, flight crews, aircraft, or users of the Wauchula Municipal Airport, you should consider listing it here.  To start the listing process, click on the button below
 
Add a business
 

Other Pages about Wauchula Municipal Airport

Update a link
 
Copyright © AirNav, LLC. All rights reserved. Privacy Policy  Contact